Wind_Speed
47 47 42 40 37 35 33 30 29 27 30 32 33 36 48 49 48 50 56 55 54 52 51 50 46 45 43 42 38 37 36 36 30 28 29 28 30 30 31 33 35 37 41 43 39
48 49 45 44 38 36 33 32 30 28 31 33 35 37 46 50 50 52 58 58 56 54 52 50 48 48 45 44 42 40 39 36 32 31 31 31 33 33 34 37 38 40 44 45 43
52 48 48 44 42 38 36 35 32 30 31 34 36 38 46 53 51 52 61 60 57 55 54 53 52 51 48 47 45 43 40 38 33 32 34 35 35 35 37 40 40 42 46 49 51
52 53 52 49 44 42 40 38 34 32 33 35 39 41 46 53 51 56 62 63 60 57 57 55 55 53 51 50 47 45 43 43 38 36 37 37 39 40 40 43 44 46 49 51 55
53 56 54 52 48 46 42 40 36 35 33 37 40 45 48 48 51 58 64 65 63 60 59 57 57 56 54 52 49 47 47 44 42 40 41 42 43 43 45 46 47 50 52 54 57
50 55 58 58 53 50 47 41 39 37 37 37 40 44 50 50 48 62 66 68 66 62 60 59 60 58 54 53 53 48 49 46 45 45 46 46 48 47 52 50 52 52 52 55 59
47 49 54 59 53 51 46 43 42 39 38 36 40 41 46 51 56 63 69 68 66 65 62 61 61 60 56 56 54 53 52 52 51 49 49 51 53 51 54 52 54 50 54 60 62
42 47 47 56 55 52 49 43 42 40 38 37 40 41 47 49 64 65 72 70 70 67 64 64 63 62 60 58 57 56 56 57 53 54 52 54 56 50 60 54 55 54 57 61 65
40 44 49 51 58 55 52 50 44 42 40 39 39 42 46 50 62 66 71 73 71 68 67 66 66 63 63 62 60 60 61 60 55 55 55 55 59 54 60 60 57 58 61 65 68
41 41 45 48 52 55 55 53 49 45 42 41 38 43 44 54 58 66 74 74 72 70 69 69 68 66 65 63 61 65 60 59 60 55 57 59 64 60 60 64 60 63 66 69 73
42 41 45 49 50 55 55 52 50 47 45 42 38 41 43 53 63 68 75 75 73 72 71 71 70 68 68 66 65 66 61 62 66 60 57 64 65 69 61 62 71 67 71 73 77
43 42 41 46 51 52 59 57 51 51 50 43 43 38 40 54 62 68 77 77 75 74 74 73 71 71 72 71 68 66 66 65 66 64 60 67 64 70 71 62 71 75 75 76 79
44 42 41 43 46 51 52 60 54 53 54 49 48 41 38 49 61 71 79 80 77 77 76 75 74 74 72 70 67 70 70 69 70 66 64 70 67 72 75 72 72 81 81 81 83
43 43 41 42 42 45 53 52 60 57 54 54 52 45 39 42 56 69 79 81 79 78 78 77 76 76 73 71 73 73 73 71 73 73 69 71 68 72 79 80 71 80 88 89 89
43 42 41 42 39 42 46 55 54 59 61 58 50 50 47 42 49 65 79 81 80 80 81 79 79 76 74 76 76 75 75 76 75 76 75 73 80 76 78 82 80 81 87 93 94
44 44 42 40 39 41 45 48 54 55 60 56 54 53 50 47 45 53 71 82 82 81 80 81 79 77 79 78 79 78 78 79 78 79 77 80 81 80 81 81 89 89 88 93 97
47 44 44 43 41 38 42 45 48 55 56 54 54 55 55 49 47 47 62 76 84 84 82 83 81 80 80 79 77 79 80 80 80 82 82 84 81 85 84 84 88 93 94 99 101
49 45 46 44 43 41 40 44 48 50 55 49 55 56 59 53 49 48 55 65 79 86 87 85 84 84 79 79 79 79 83 82 83 84 84 89 83 90 90 85 86 89 95 100 101
51 47 45 47 45 44 41 40 45 50 48 57 59 61 61 59 53 51 51 60 69 78 85 87 88 84 78 81 83 84 84 84 85 86 86 82 87 94 93 93 90 92 95 99 100
52 52 48 45 47 45 43 42 39 44 47 49 59 61 62 61 55 53 53 52 55 66 69 81 88 86 81 80 83 85 86 85 86 85 87 84 88 97 95 93 94 96 98 101 103
54 51 52 48 44 46 46 41 41 42 42 47 50 59 59 55 63 58 53 44 48 50 61 74 76 82 81 80 85 85 86 88 88 86 88 87 87 95 98 94 95 99 103 104 105
55 52 50 48 46 46 47 45 39 40 39 40 45 55 57 58 61 61 53 49 57 53 53 53 65 71 75 77 79 82 86 86 88 85 91 94 90 98 99 100 98 97 104 105 104
56 53 49 48 48 48 46 46 41 37 39 39 43 47 56 61 67 64 58 57 57 57 58 56 57 59 64 68 75 78 81 86 91 91 89 93 90 101 100 95 97 99 101 99 101
56 61 51 48 46 49 48 46 43 37 36 38 39 45 48 56 65 64 64 63 62 60 59 58 60 63 63 65 68 65 68 78 84 86 88 87 94 99 99 85 88 97 100 104 104
61 59 52 50 49 48 45 45 44 40 37 38 40 40 44 48 57 63 67 66 67 67 68 67 65 65 64 65 66 69 69 70 75 78 83 77 85 91 96 96 94 96 97 97 97
61 58 58 54 52 48 47 45 44 43 40 38 40 40 41 43 49 55 62 66 68 69 69 69 70 71 71 72 74 75 76 79 81 84 87 88 89 91 93 97 98 96 92 92 90
64 66 62 57 56 52 51 46 42 42 44 43 40 41 40 40 45 47 52 59 65 70 73 75 75 75 74 75 78 79 81 81 84 88 90 93 91 91 91 89 85 86 86 87 89
Wind_Direction
216 215 221 222 219 222 226 222 225 227 223 226 220 207 202 205 207 203 204 202 200 200 205 212 215 218 223 227 228 233 238 242 244 249 253 262 273 279 286 293 297 301 307 314 307
218 219 222 218 218 224 226 222 225 223 222 224 219 207 204 206 206 203 202 204 203 204 207 214 218 220 225 227 232 237 241 247 246 250 259 266 274 281 287 292 295 300 307 314 311
219 223 223 222 224 228 226 224 221 221 220 222 218 209 207 209 208 202 205 205 205 207 209 215 219 222 226 229 235 238 242 245 249 256 265 270 276 284 288 293 297 301 306 311 312
223 222 221 221 227 228 226 223 222 221 220 219 218 213 211 211 210 205 206 206 206 208 213 217 221 224 227 230 235 238 243 246 252 260 268 273 279 285 288 290 296 301 307 307 309
224 226 224 223 226 227 226 224 223 222 222 217 215 212 213 217 208 207 206 208 208 209 214 219 222 226 229 232 236 239 244 250 257 263 268 275 279 283 286 290 295 301 303 304 307
226 227 225 223 229 227 228 227 225 222 228 218 214 212 213 216 206 209 207 209 210 211 216 221 225 228 230 233 237 241 247 252 258 263 269 274 278 282 284 290 294 299 303 303 303
227 226 225 223 226 227 229 229 224 221 228 222 215 213 213 215 205 210 208 211 210 212 217 222 227 231 232 235 238 242 248 253 257 263 270 274 277 282 283 289 294 301 296 298 301
228 226 225 224 224 227 226 225 223 224 226 228 218 213 213 211 209 212 208 210 212 214 218 222 226 232 236 237 239 243 249 253 258 265 269 274 278 281 285 289 294 297 294 295 296
231 227 224 223 222 225 228 231 225 222 224 229 223 217 214 212 214 214 209 210 213 215 219 224 227 231 237 240 243 246 249 255 260 265 267 273 275 279 284 288 293 294 292 297 299
231 228 226 224 222 220 229 231 230 224 223 227 227 222 215 215 216 213 211 211 213 217 220 225 228 232 237 241 244 247 252 257 258 260 271 271 275 279 283 292 294 292 294 294 297
233 231 227 225 224 222 222 228 232 226 225 225 228 224 219 216 214 216 213 213 215 218 223 227 230 234 238 241 245 250 254 255 262 265 265 272 276 282 283 287 292 292 292 294 296
230 231 229 226 226 223 222 224 228 226 229 226 224 223 223 219 215 216 213 215 216 220 224 227 231 235 238 241 246 252 254 258 261 265 270 270 277 281 285 285 287 290 292 293 297
227 231 232 229 226 227 226 225 224 228 229 225 223 223 228 222 218 217 214 217 218 221 226 229 232 237 240 245 248 251 255 259 263 266 266 273 277 280 282 286 289 294 293 294 298
226 228 230 230 228 228 225 227 226 227 229 226 224 225 230 231 223 219 216 219 221 223 227 231 234 238 243 246 248 252 256 260 263 266 268 272 274 279 284 285 286 295 297 297 298
226 227 228 229 228 229 228 226 228 227 228 225 224 226 228 232 227 224 219 221 223 225 229 232 235 238 243 247 251 253 258 260 263 269 271 276 275 276 279 289 290 289 293 297 299
227 227 227 230 229 229 230 231 230 229 231 229 229 226 227 231 232 226 225 224 225 228 231 235 236 240 243 246 250 254 257 262 265 268 272 275 278 281 283 285 289 291 292 295 298
227 227 228 230 232 232 231 233 234 231 231 229 225 228 224 229 230 228 228 228 228 230 232 236 238 241 245 247 252 256 259 262 265 269 272 275 279 282 283 286 287 291 295 297 298
226 226 227 228 231 233 235 233 236 237 233 229 224 229 225 226 232 231 231 229 231 231 233 236 241 241 245 251 253 257 260 263 266 270 273 279 279 279 281 283 285 287 291 295 298
226 225 228 227 229 232 236 236 236 238 235 229 226 226 227 225 231 237 237 234 232 233 235 238 241 245 245 252 255 258 260 264 268 269 271 275 279 280 282 285 288 290 291 293 296
226 224 227 229 228 231 234 237 239 241 238 236 232 230 230 228 231 238 241 243 243 240 239 241 244 245 246 248 256 258 261 263 266 270 273 275 279 282 285 286 288 291 293 295 297
227 227 226 229 231 231 233 236 239 243 240 237 234 234 231 232 234 238 241 248 254 251 245 245 246 250 248 251 254 258 264 266 267 272 273 275 278 281 284 285 289 291 293 295 296
228 230 229 228 231 234 234 234 237 242 243 238 236 233 232 231 237 238 242 246 253 253 253 254 254 255 256 254 257 261 264 266 270 273 277 279 282 282 283 286 290 292 292 295 297
227 232 231 229 231 234 234 235 235 239 244 242 236 236 234 230 234 238 237 243 250 256 256 253 253 255 258 260 258 262 266 270 272 273 275 279 280 281 282 286 291 293 294 296 298
228 231 233 229 229 233 234 234 234 234 240 244 242 238 239 236 238 238 241 243 245 250 257 260 264 262 261 262 265 266 263 267 271 275 277 280 283 286 288 292 293 292 297 299 299
226 230 232 231 231 234 237 235 235 234 236 241 244 243 244 243 242 241 243 243 247 251 255 257 259 262 264 265 269 272 272 274 275 278 280 282 284 288 293 295 293 294 295 297 298
225 228 231 232 234 237 239 238 236 237 237 239 240 244 246 249 248 246 246 247 248 250 253 256 260 263 267 269 271 275 279 280 282 283 285 285 286 290 290 292 294 297 298 298 299
225 228 230 232 236 238 240 240 242 240 239 240 242 241 243 248 250 252 253 252 252 253 255 257 257 259 263 266 269 271 272 274 278 280 283 285 289 293 295 297 297 297 298 299 299
Height
10782 10786 10792 10798 10804 10808 10813 10816 10819 10822 10826 10829 10833 10837 10842 10847 10851 10857 10864 10873 10877 10883 10886 10890 10895 10899 10902 10904 10906 10908 10908 10906 10913 10914 10911 10911 10910 10909 10909 10908 10905 10903 10899 10896 10892
10774 10781 10785 10792 10798 10803 10808 10812 10814 10818 10821 10824 10828 10833 10838 10842 10848 10855 10863 10866 10873 10878 10883 10888 10892 10894 10897 10899 10901 10904 10904 10906 10910 10909 10907 10907 10906 10905 10905 10902 10901 10898 10894 10890 10886
10767 10774 10779 10785 10792 10797 10802 10806 10809 10812 10816 10819 10824 10828 10833 10837 10842 10853 10855 10862 10869 10875 10878 10883 10886 10889 10893 10895 10897 10900 10902 10900 10905 10905 10903 10903 10902 10901 10900 10896 10895 10892 10888 10885 10880
10760 10766 10772 10778 10785 10790 10795 10800 10803 10806 10811 10814 10818 10823 10828 10831 10839 10847 10851 10857 10864 10870 10873 10877 10881 10885 10888 10891 10894 10896 10898 10897 10899 10900 10899 10899 10897 10896 10895 10892 10889 10886 10883 10879 10874
10752 10758 10765 10771 10777 10783 10789 10794 10798 10801 10804 10808 10812 10817 10822 10828 10838 10842 10849 10855 10858 10864 10868 10872 10876 10880 10884 10887 10890 10891 10892 10893 10893 10894 10893 10893 10891 10890 10888 10886 10884 10882 10877 10872 10867
10745 10750 10756 10764 10770 10776 10782 10788 10792 10796 10798 10802 10807 10812 10817 10824 10837 10834 10843 10846 10852 10860 10864 10868 10870 10874 10881 10883 10883 10888 10886 10887 10887 10887 10887 10887 10884 10885 10879 10883 10879 10876 10871 10865 10860
10736 10742 10748 10756 10763 10769 10775 10781 10786 10791 10793 10797 10801 10806 10813 10818 10828 10829 10836 10842 10850 10852 10858 10862 10867 10868 10874 10877 10879 10881 10880 10879 10878 10881 10881 10880 10878 10880 10873 10875 10872 10870 10865 10859 10854
10729 10734 10740 10747 10755 10761 10767 10773 10779 10784 10788 10792 10797 10801 10805 10816 10816 10821 10827 10836 10842 10848 10854 10857 10860 10864 10866 10871 10872 10873 10872 10870 10877 10874 10876 10873 10870 10877 10861 10868 10865 10863 10858 10852 10847
10722 10726 10732 10738 10746 10753 10759 10765 10771 10777 10782 10786 10791 10796 10800 10810 10810 10814 10825 10829 10837 10844 10847 10850 10854 10859 10860 10863 10866 10863 10863 10866 10873 10868 10868 10866 10860 10870 10857 10857 10858 10854 10850 10844 10838
10715 10719 10724 10730 10737 10745 10751 10757 10764 10770 10776 10781 10786 10790 10797 10798 10807 10814 10816 10824 10830 10836 10841 10844 10847 10851 10855 10856 10858 10852 10860 10859 10858 10865 10862 10857 10850 10856 10854 10847 10848 10845 10840 10834 10829
10708 10713 10717 10722 10728 10736 10744 10750 10756 10766 10769 10774 10781 10785 10788 10793 10799 10804 10812 10818 10823 10830 10835 10836 10840 10846 10847 10847 10847 10847 10853 10851 10843 10857 10857 10848 10847 10838 10849 10845 10831 10834 10830 10825 10818
10701 10706 10710 10715 10721 10728 10734 10741 10748 10756 10760 10767 10772 10779 10783 10785 10790 10796 10804 10810 10816 10823 10825 10829 10834 10836 10835 10838 10841 10844 10843 10843 10840 10845 10850 10839 10843 10831 10825 10838 10825 10819 10817 10813 10808
10695 10699 10703 10707 10713 10720 10726 10733 10740 10748 10752 10760 10764 10772 10775 10780 10783 10789 10798 10801 10809 10814 10817 10821 10826 10826 10832 10835 10839 10834 10834 10834 10833 10839 10841 10831 10836 10824 10818 10819 10820 10803 10800 10799 10795
10688 10692 10697 10700 10706 10711 10717 10725 10732 10738 10744 10749 10757 10766 10771 10773 10779 10782 10789 10793 10800 10806 10808 10813 10816 10821 10825 10828 10826 10827 10825 10828 10824 10824 10829 10824 10829 10819 10806 10804 10819 10799 10783 10779 10779
10680 10686 10690 10694 10698 10703 10709 10714 10721 10728 10731 10743 10754 10758 10761 10766 10774 10775 10782 10786 10792 10796 10798 10805 10807 10813 10820 10818 10818 10821 10821 10818 10818 10815 10816 10817 10806 10813 10807 10794 10795 10794 10780 10765 10761
10672 10679 10684 10688 10691 10696 10701 10706 10713 10720 10724 10736 10744 10749 10755 10759 10763 10773 10774 10778 10781 10787 10793 10793 10801 10806 10804 10807 10808 10810 10811 10810 10809 10807 10809 10801 10799 10802 10796 10792 10773 10771 10772 10760 10746
10665 10671 10676 10681 10686 10689 10694 10699 10704 10710 10717 10727 10736 10738 10744 10750 10755 10762 10762 10770 10773 10777 10783 10781 10790 10793 10795 10797 10803 10801 10802 10802 10801 10797 10797 10793 10796 10783 10782 10779 10769 10757 10753 10740 10732
10657 10663 10668 10673 10679 10683 10688 10693 10696 10700 10709 10720 10722 10726 10733 10740 10747 10750 10753 10758 10761 10767 10769 10774 10778 10779 10790 10792 10793 10794 10788 10791 10789 10787 10786 10776 10785 10765 10762 10767 10760 10752 10742 10730 10722
10648 10655 10660 10666 10672 10677 10682 10685 10689 10693 10700 10704 10709 10714 10722 10731 10735 10742 10745 10747 10750 10756 10763 10767 10764 10777 10790 10783 10780 10778 10778 10776 10776 10775 10772 10777 10763 10746 10749 10750 10749 10740 10729 10720 10712
10639 10645 10650 10658 10665 10671 10675 10678 10683 10686 10691 10696 10703 10707 10714 10722 10729 10731 10735 10745 10749 10752 10764 10759 10758 10764 10775 10777 10768 10763 10762 10766 10763 10764 10759 10765 10753 10730 10733 10736 10731 10725 10713 10704 10698
10628 10637 10642 10651 10658 10664 10666 10672 10676 10679 10683 10688 10695 10698 10707 10716 10716 10723 10727 10744 10743 10745 10746 10744 10751 10751 10767 10763 10755 10757 10752 10749 10749 10751 10745 10745 10745 10726 10716 10722 10718 10706 10696 10690 10685
10620 10628 10637 10643 10651 10655 10660 10664 10669 10673 10676 10681 10684 10687 10697 10708 10706 10712 10725 10734 10726 10733 10735 10743 10739 10743 10747 10748 10749 10743 10740 10741 10736 10741 10729 10722 10733 10709 10704 10697 10704 10703 10679 10676 10668
10612 10619 10628 10635 10641 10645 10651 10656 10662 10666 10669 10673 10676 10680 10685 10693 10692 10700 10714 10717 10719 10721 10723 10727 10728 10730 10731 10731 10729 10734 10734 10727 10717 10717 10722 10711 10717 10685 10684 10695 10687 10679 10666 10661 10653
10604 10604 10619 10626 10633 10635 10641 10648 10655 10660 10663 10666 10669 10672 10676 10683 10685 10695 10699 10705 10707 10709 10712 10716 10717 10718 10719 10718 10715 10719 10718 10713 10705 10705 10701 10702 10686 10672 10666 10690 10679 10657 10652 10643 10635
10589 10598 10610 10618 10621 10626 10634 10641 10647 10653 10656 10659 10661 10665 10669 10673 10677 10682 10686 10692 10694 10699 10700 10702 10703 10704 10707 10708 10706 10701 10701 10701 10695 10690 10682 10694 10677 10666 10655 10656 10659 10647 10637 10627 10617
10579 10591 10596 10606 10612 10620 10625 10631 10638 10644 10649 10652 10654 10658 10662 10664 10667 10671 10675 10679 10684 10685 10689 10691 10692 10693 10694 10693 10691 10690 10689 10683 10681 10674 10670 10666 10665 10660 10647 10633 10632 10628 10619 10609 10600
10569 10571 10587 10598 10604 10612 10615 10623 10629 10635 10640 10643 10648 10652 10656 10657 10657 10661 10665 10669 10672 10673 10675 10676 10678 10681 10683 10681 10678 10677 10673 10674 10668 10657 10654 10647 10654 10644 10631 10624 10615 10606 10597 10589 10581